Daily weather history


Statistical History for Sunday, February 24, 2013

Tampa Knight Airport, FL


  Actual Average (KTPA) Record (KTPA)
Temperature
Mean Temperature 65 °F  
Max Temperature 74 °F 85 °F (2001)
Min Temperature 56 °F 32 °F (1901)
Degree Days
Heating Degree Days 3  
Month to date heating degree days 95  
Since 1 July heating degree days 460  
Cooling Degree Days 3  
Month to date cooling degree days 50  
Year to date cooling degree days 100  
Growing Degree Days 23 (Base - )  
Moisture
Dew Point   
Average Humidity    
Maximum Humidity    
Minimum Humidity    
Precipitation
Precipitation 0.09 in 2.22 in (2004)
Month to date precipitation 2.44  
Year to date precipitation 4.67  
Wind
Wind Speed   
Max Wind Speed   
Max Gust Speed   
Visibility   
Events   

Key: T is trace of precipitation, MM is missing value
Source: NWS Daily Summary
Time(EST)TemperatureDew PointHumidity Sea Level Pressure Visibility Wind DirectionWind SpeedGust SpeedPrecipitationEventsConditions
12:15 AM 68.0 °F 66.2 °F 94% 29.96 in 0.5 miles SSW 9.2 mph - N/A Fog Fog
12:35 AM 68.0 °F 66.2 °F 94% 29.95 in 0.5 miles SW 8.1 mph - N/A Fog Fog
12:55 AM 68.0 °F 66.2 °F 94% 29.95 in 0.5 miles SW 4.6 mph - N/A Fog Fog
1:15 AM 68.0 °F 66.2 °F 94% 29.95 in 0.5 miles SW 3.5 mph - N/A Fog Fog
1:35 AM 68.0 °F 66.2 °F 94% 29.95 in 0.5 miles SW 5.8 mph - N/A Fog Fog
1:55 AM 68.0 °F 66.2 °F 94% 29.94 in 0.5 miles SSW 9.2 mph - N/A Fog Fog
2:15 AM 68.0 °F 66.2 °F 94% 29.93 in 0.8 miles SSW 9.2 mph - N/A   Overcast
2:35 AM 68.0 °F 66.2 °F 94% 29.92 in 0.8 miles SSW 10.4 mph - N/A   Overcast
2:55 AM 68.0 °F 66.2 °F 94% 29.92 in 0.5 miles SSW 6.9 mph - N/A Fog Fog
3:15 AM 68.0 °F 66.2 °F 94% 29.92 in 0.8 miles South 6.9 mph - N/A   Overcast
3:35 AM 68.0 °F 66.2 °F 94% 29.91 in 2.5 miles South 9.2 mph - N/A   Overcast
3:55 AM 68.0 °F 66.2 °F 94% 29.90 in 1.0 miles South 8.1 mph - N/A   Overcast
4:15 AM 68.0 °F 66.2 °F 94% 29.91 in 1.0 miles SSW 8.1 mph - N/A   Overcast
4:35 AM 68.0 °F 68.0 °F 100% 29.92 in 1.5 miles SW 5.8 mph - N/A   Overcast
5:15 AM 68.0 °F 68.0 °F 100% 29.93 in 4.0 miles SW 5.8 mph - N/A   Overcast
5:35 AM 68.0 °F 68.0 °F 100% 29.93 in 4.0 miles WSW 3.5 mph - N/A   Overcast
5:55 AM 68.0 °F 68.0 °F 100% 29.94 in 1.8 miles SW 3.5 mph - N/A   Overcast
6:15 AM 68.0 °F 68.0 °F 100% 29.95 in 1.2 miles Calm Calm - N/A   Overcast
6:35 AM 68.0 °F 68.0 °F 100% 29.95 in 1.5 miles SW 3.5 mph - N/A   Overcast
6:55 AM 68.0 °F 68.0 °F 100% 29.96 in 2.5 miles SW 6.9 mph - N/A   Overcast
7:15 AM 68.0 °F 68.0 °F 100% 29.96 in 5.0 miles SSW 4.6 mph - N/A   Overcast
7:35 AM 68.0 °F 68.0 °F 100% 29.96 in 7.0 miles SSW 5.8 mph - N/A   Overcast
7:55 AM 68.0 °F 68.0 °F 100% 29.97 in 7.0 miles SSW 5.8 mph - N/A   Overcast
8:15 AM 68.0 °F 68.0 °F 100% 29.98 in 7.0 miles South 6.9 mph - N/A   Overcast
8:35 AM 69.8 °F 68.0 °F 94% 29.98 in 10.0 miles SSW 6.9 mph - N/A   Overcast
8:55 AM 69.8 °F 68.0 °F 94% 29.98 in 10.0 miles SW 5.8 mph - N/A   Overcast
9:15 AM 69.8 °F 68.0 °F 94% 29.98 in 10.0 miles SSW 6.9 mph - N/A   Overcast
9:35 AM 71.6 °F 68.0 °F 88% 29.97 in 10.0 miles SSW 8.1 mph - N/A   Mostly Cloudy
9:55 AM 73.4 °F 68.0 °F 83% 29.97 in 10.0 miles SW 6.9 mph - N/A   Scattered Clouds
10:15 AM 73.4 °F 68.0 °F 83% 29.98 in 10.0 miles SSW 9.2 mph - N/A   Clear
10:35 AM 77.0 °F 68.0 °F 74% 29.98 in 10.0 miles SW 8.1 mph 25.3 mph N/A   Clear
10:55 AM 77.0 °F 68.0 °F 74% 29.98 in 10.0 miles SSW 11.5 mph 19.6 mph N/A   Clear
11:15 AM 77.0 °F 68.0 °F 74% 29.98 in 10.0 miles SW 8.1 mph - N/A   Clear
11:35 AM 77.0 °F 68.0 °F 74% 29.98 in 10.0 miles SSW 10.4 mph - N/A   Clear
11:55 AM 78.8 °F 68.0 °F 69% 29.98 in 10.0 miles SW 9.2 mph - N/A   Clear
12:15 PM 78.8 °F 68.0 °F 69% 29.97 in 10.0 miles SW 8.1 mph - N/A   Clear
12:35 PM 78.8 °F 68.0 °F 69% 29.98 in 10.0 miles SW 5.8 mph - N/A   Scattered Clouds
12:55 PM 78.8 °F 68.0 °F 69% 29.97 in 10.0 miles WSW 4.6 mph - N/A   Scattered Clouds
1:15 PM 77.0 °F 66.2 °F 69% 29.96 in 10.0 miles WSW 3.5 mph - N/A   Clear
1:35 PM 78.8 °F 66.2 °F 65% 29.96 in 10.0 miles WSW 8.1 mph - N/A   Clear
2:35 PM 77.0 °F 68.0 °F 74% 29.94 in 10.0 miles SW 5.8 mph - N/A   Clear
2:55 PM 77.0 °F 68.0 °F 74% 29.94 in 10.0 miles WSW 3.5 mph - N/A   Clear
3:15 PM 75.2 °F 68.0 °F 78% 29.94 in 10.0 miles SW 3.5 mph - N/A   Clear
3:35 PM 75.2 °F 68.0 °F 78% 29.93 in 10.0 miles SW 3.5 mph - N/A   Clear
3:55 PM 73.4 °F 68.0 °F 83% 29.93 in 10.0 miles SW 3.5 mph - N/A   Scattered Clouds
4:15 PM 73.4 °F 68.0 °F 83% 29.92 in 10.0 miles SW 3.5 mph - N/A   Clear
4:35 PM 73.4 °F 68.0 °F 83% 29.92 in 10.0 miles SSW 4.6 mph - N/A   Clear
4:55 PM 71.6 °F 68.0 °F 88% 29.92 in 10.0 miles SSW 4.6 mph - N/A   Clear
5:15 PM 71.6 °F 68.0 °F 88% 29.93 in 10.0 miles SSW 3.5 mph - N/A   Clear
5:35 PM 71.6 °F 68.0 °F 88% 29.92 in 10.0 miles Calm Calm - N/A   Clear
5:55 PM 71.6 °F 68.0 °F 88% 29.92 in 10.0 miles SSW 4.6 mph - N/A   Clear
6:15 PM 71.6 °F 68.0 °F 88% 29.94 in 10.0 miles SW 4.6 mph - N/A   Clear
6:35 PM 71.6 °F 68.0 °F 88% 29.93 in 10.0 miles Calm Calm - N/A   Clear
6:55 PM 71.6 °F 68.0 °F 88% 29.94 in 10.0 miles Calm Calm - N/A   Clear
7:15 PM 71.6 °F 68.0 °F 88% 29.95 in 10.0 miles Calm Calm - N/A   Clear
7:35 PM 69.8 °F 68.0 °F 94% 29.96 in 10.0 miles Calm Calm - N/A   Clear
7:55 PM 69.8 °F 68.0 °F 94% 29.95 in 10.0 miles Calm Calm - N/A   Clear
8:15 PM 69.8 °F 66.2 °F 88% 29.96 in 10.0 miles Calm Calm - N/A   Clear
8:35 PM 69.8 °F 68.0 °F 94% 29.96 in 7.0 miles Calm Calm - N/A   Clear
8:55 PM 69.8 °F 66.2 °F 88% 29.96 in 7.0 miles Calm Calm - N/A   Clear
9:15 PM 68.0 °F 66.2 °F 94% 29.95 in 5.0 miles Calm Calm - N/A   Clear
9:35 PM 68.0 °F 66.2 °F 94% 29.96 in 7.0 miles Calm Calm - N/A   Clear
9:55 PM 68.0 °F 64.4 °F 88% 29.94 in 5.0 miles East 3.5 mph - N/A   Clear
10:15 PM 68.0 °F 68.0 °F 100% 29.93 in 5.0 miles Calm Calm - N/A   Clear
10:35 PM 68.0 °F 66.2 °F 94% 29.94 in 4.0 miles Calm Calm - N/A   Clear
10:55 PM 68.0 °F 66.2 °F 94% 29.93 in 5.0 miles East 3.5 mph - N/A   Clear
11:15 PM 68.0 °F 64.4 °F 88% 29.94 in 5.0 miles Calm Calm - N/A   Clear
11:35 PM 68.0 °F 66.2 °F 94% 29.93 in 7.0 miles East 4.6 mph - N/A   Clear
11:55 PM 68.0 °F 66.2 °F 94% 29.93 in 7.0 miles ESE 3.5 mph - N/A   Clear
ADVERTISEMENT
Enter city or zip code to search weather conditions:

My favorites Edit

Partly Cloudy
28°
Partly Cloudy

Overcast
32°
Overcast

Overcast
31°
Overcast


  • 490 First Avenue South
  • St. Petersburg, FL 33701
  • 727-893-8111